Regional Weather Roundup
Issued by NWS Goodland, KS

Home | Current Version | Previous Version | Text Only | Print | Product List | Glossary Off
Versions: 1 2 3 4 5 6 7 8 9 10 11 12 13 14 15 16 17 18 19 20 21 22 23 24 25 26 27 28 29 30 31 32 33 34 35 36 37 38 39 40 41 42 43 44 45 46 47 48 49 50

430
ASUS43 KGLD 250608
RWRGLD

GOODLAND FORECAST AREA HOURLY WEATHER ROUNDUP
NATIONAL WEATHER SERVICE GOODLAND KS
1100 PM MST FRI FEB 24 2017

...OFFICIAL OBSERVATIONS...

CITY           SKY/WX    TMP DP  RH WIND       PRES   REMARKS
GOODLAND KS    CLEAR     12  10  92 W5        30.12S
HILL CITY KS   CLEAR     17  13  84 NW6       30.19R
IMPERIAL NEB   CLOUDY    15  11  83 W3        30.13S
MCCOOK NEB     CLOUDY    16  10  77 NW9       30.17S
AKRON CO       CLEAR     12   7  80 SW5       30.05F
BURLINGTON CO  CLEAR     12   7  80 S3        30.09F
LIMON CO       CLOUDY    15  12  88 CALM      30.04F
$$

...UNOFFICIAL OBSERVATIONS...

CITY           SKY/WX    TMP DP  RH WIND       PRES   REMARKS
LENORA KS        N/A     16  32 100 W5          N/A
SHARON SPRINGS   N/A     18  14  83 CALM        N/A
TRIBUNE KS     CLEAR     21  16  79 N6        30.14
TRENTON NEB      N/A     14  32 100 CALM        N/A
KIT CARSON CO    N/A     12   7  81 CALM        N/A
YUMA CO        FAIR      10   7  85 SW3       30.08F
$$




USA.gov is the U.S. government's official web portal to all federal, state and local government web resources and services.